DW0553 Weather Reports


Display with metric or nautical units.
time (UTC)temp
F
wind
direction
speed
MPH
gust
MPH
rain 1hr
in
rain 24hr
in
rain mn
in
humidity
%
barometer
mb
20200118165137 49 213 0.0 0.0 0.00 0.00 0.00 90 1023.3
20200118164137 47 213 0.0 0.0 0.00 0.00 0.00 92 1023.3
20200118163137 46 213 0.0 0.0 0.00 0.00 0.00 92 1023.4
20200118162136 45 213 0.0 0.0 0.00 0.00 0.00 93 1023.2
20200118161136 44 213 0.0 0.0 0.00 0.00 0.00 94 1022.9
20200118160135 43 213 0.0 0.0 0.00 0.00 0.00 95 1022.8
20200118155135 42 213 0.0 0.0 0.00 0.00 0.00 95 1022.7
20200118154135 42 213 0.0 0.0 0.00 0.00 0.00 96 1022.7
20200118153134 41 213 0.0 0.0 0.00 0.00 0.00 95 1022.6
20200118152135 41 213 0.0 0.0 0.00 0.00 0.00 95 1022.6
20200118151134 41 213 0.0 0.0 0.00 0.00 0.00 95 1022.6
20200118150134 41 213 0.0 0.0 0.00 0.00 0.00 95 1022.5
20200118145133 41 213 0.0 0.0 0.00 0.00 0.00 95 1022.4
20200118144133 41 213 0.0 0.0 0.00 0.00 0.00 95 1022.5
20200118143133 42 213 0.0 0.0 0.00 0.00 0.00 95 1022.4
20200118142132 42 213 0.0 0.0 0.00 0.00 0.00 95 1022.3
20200118141132 42 213 0.0 0.0 0.00 0.00 0.00 95 1022.2
20200118140132 41 213 0.0 0.0 0.00 0.00 0.00 95 1022.0
20200118135132 42 213 0.0 0.0 0.00 0.00 0.00 95 1021.8
20200118134132 42 213 0.0 0.0 0.00 0.00 0.00 95 1021.8
20200118133131 42 213 0.0 0.0 0.00 0.00 0.00 95 1021.8
20200118132131 42 213 0.0 1.0 0.00 0.00 0.00 95 1021.8
20200118131130 42 213 1.0 1.0 0.00 0.00 0.00 95 1021.8
20200118130130 42 213 0.0 0.0 0.00 0.00 0.00 95 1021.9
20200118125130 42 213 0.0 0.0 0.00 0.00 0.00 95 1022.1
20200118124130 42 213 0.0 0.0 0.00 0.00 0.00 95 1022.1
20200118123129 42 213 0.0 0.0 0.00 0.00 0.00 95 1022.2
20200118122129 43 213 0.0 0.0 0.00 0.00 0.00 95 1022.1
20200118121129 43 213 0.0 0.0 0.00 0.00 0.00 94 1021.9
20200118120131 43 213 0.0 0.0 0.00 0.00 0.00 94 1021.9
20200118115129 43 213 0.0 0.0 0.00 0.00 0.00 94 1021.9
20200118114128 43 213 0.0 0.0 0.00 0.00 0.00 94 1021.9
20200118113128 43 213 0.0 0.0 0.00 0.01 0.00 94 1021.9
20200118112127 43 213 0.0 0.0 0.00 0.04 0.00 94 1022.1
20200118111127 43 213 0.0 0.0 0.00 0.05 0.00 94 1021.9
20200118110127 43 213 0.0 0.0 0.00 0.05 0.00 94 1022.0
20200118105127 44 213 0.0 0.0 0.00 0.05 0.00 94 1022.1
20200118104127 44 213 0.0 0.0 0.00 0.05 0.00 93 1022.2
20200118103126 44 213 0.0 0.0 0.00 0.06 0.00 93 1022.2
20200118102126 44 213 0.0 0.0 0.00 0.07 0.00 93 1022.5
20200118101125 44 213 0.0 0.0 0.00 0.07 0.00 93 1022.5
20200118100125 44 213 0.0 0.0 0.00 0.07 0.00 93 1022.6
20200118095125 44 213 0.0 0.0 0.00 0.07 0.00 93 1022.6
20200118094125 44 213 0.0 0.0 0.00 0.07 0.00 93 1022.6
20200118093124 44 213 0.0 0.0 0.00 0.07 0.00 92 1022.6
20200118092124 44 213 0.0 0.0 0.00 0.07 0.00 92 1022.6
20200118091124 45 213 0.0 0.0 0.00 0.08 0.00 92 1022.6
20200118090123 45 213 0.0 0.0 0.00 0.09 0.00 91 1022.9
20200118085123 45 213 0.0 0.0 0.00 0.10 0.00 91 1022.9
20200118084123 45 213 0.0 0.0 0.00 0.12 0.00 90 1022.8
20200118083123 45 213 0.0 0.0 0.00 0.12 0.00 90 1022.9
20200118082122 46 213 0.0 0.0 0.00 0.12 0.00 90 1022.9
20200118081122 46 213 0.0 0.0 0.00 0.12 0.00 90 1023.0
20200118080122 46 213 0.0 0.0 0.00 0.12 0.00 90 1023.1
20200118075121 46 213 0.0 0.0 0.00 0.12 0.12 90 1023.1
20200118074128 46 213 0.0 0.0 0.00 0.12 0.12 90 1023.1
20200118073121 46 213 0.0 0.0 0.00 0.12 0.12 90 1023.2
20200118072120 46 213 0.0 0.0 0.00 0.12 0.12 89 1023.3
20200118071120 46 213 0.0 0.0 0.00 0.12 0.12 89 1023.3
20200118070120 46 213 0.0 0.0 0.00 0.12 0.12 87 1023.2
20200118065120 47 213 0.0 0.0 0.00 0.12 0.12 87 1023.3
20200118064119 47 213 0.0 0.0 0.00 0.12 0.12 87 1023.3
20200118063121 47 213 0.0 0.0 0.00 0.12 0.12 87 1023.3
20200118062119 47 213 0.0 0.0 0.00 0.12 0.12 87 1023.4
20200118061118 48 213 0.0 0.0 0.00 0.12 0.12 89 1023.3
20200118060118 48 213 0.0 0.0 0.00 0.12 0.12 87 1023.2
20200118055118 48 213 0.0 0.0 0.00 0.12 0.12 87 1023.1
20200118054117 49 213 0.0 0.0 0.00 0.12 0.12 87 1023.0
20200118053119 49 213 0.0 0.0 0.00 0.12 0.12 87 1022.9
20200118052117 49 213 0.0 0.0 0.00 0.12 0.12 86 1022.8
20200118051117 50 213 0.0 0.0 0.00 0.12 0.12 86 1022.8
20200118050116 50 213 0.0 0.0 0.00 0.12 0.12 86 1022.7
20200118045117 50 213 0.0 0.0 0.00 0.12 0.12 85 1022.7
20200118044116 51 213 0.0 0.0 0.00 0.12 0.12 85 1022.7
20200118043116 51 213 0.0 0.0 0.00 0.12 0.12 85 1022.7
20200118042115 52 213 0.0 0.0 0.00 0.12 0.12 83 1022.7
20200118041115 52 213 0.0 0.0 0.00 0.12 0.12 83 1022.7
20200118040115 52 213 0.0 0.0 0.00 0.12 0.12 84 1022.8
20200118035115 52 213 0.0 0.0 0.00 0.12 0.12 83 1022.6
20200118034115 52 213 0.0 0.0 0.00 0.12 0.12 83 1022.6
20200118033114 53 213 0.0 0.0 0.00 0.12 0.12 83 1022.7
20200118032114 53 213 0.0 0.0 0.00 0.12 0.12 82 1022.8
20200118031114 53 213 0.0 0.0 0.00 0.12 0.12 82 1022.8
20200118030113 54 213 0.0 0.0 0.00 0.12 0.12 82 1022.8
20200118025113 54 213 0.0 0.0 0.00 0.12 0.12 80 1022.8
20200118024112 54 213 0.0 0.0 0.00 0.12 0.12 79 1022.8
20200118023112 55 213 0.0 0.0 0.00 0.12 0.12 78 1022.8
20200118022112 55 213 0.0 0.0 0.00 0.12 0.12 78 1022.8
20200118021112 55 213 0.0 0.0 0.00 0.12 0.12 77 1022.7
20200118020141 55 213 0.0 0.0 0.00 0.12 0.12 76 1022.7
20200118015147 56 213 0.0 1.0 0.00 0.12 0.12 74 1022.6
20200118014111 57 215 0.0 0.0 0.00 0.12 0.12 73 1022.6
20200118013141 57 214 0.0 0.0 0.00 0.12 0.12 72 1022.6
20200118012140 58 215 0.0 0.0 0.00 0.12 0.12 71 1022.6
20200118011135 58 215 0.0 0.0 0.00 0.12 0.12 69 1022.6
20200118010135 59 215 0.0 3.0 0.00 0.12 0.12 66 1022.5
20200118005135 60 208 0.0 0.0 0.00 0.12 0.12 63 1022.4
20200118004134 60 209 0.0 4.0 0.00 0.12 0.12 62 1022.4
20200118003134 60 257 0.0 7.0 0.00 0.12 0.12 61 1022.3
20200118002134 60 194 3.0 5.0 0.00 0.12 0.12 63 1022.3
20200118001133 60 218 3.0 5.0 0.00 0.12 0.12 63 1022.4
20200118000134 60 218 4.0 4.0 0.00 0.12 0.12 65 1022.4
20200117235133 59 204 0.0 4.0 0.00 0.12 0.12 66 1022.5
20200117234133 59 217 3.0 5.0 0.00 0.12 0.12 66 1022.4
20200117233132 60 279 0.0 5.0 0.00 0.12 0.12 65 1022.4
20200117232132 61 194 4.0 7.0 0.00 0.12 0.12 62 1022.4
20200117231132 62 297 4.0 8.0 0.00 0.12 0.12 61 1022.4
20200117230131 62 196 4.0 8.0 0.00 0.12 0.12 61 1022.4
20200117225132 62 215 0.0 8.0 0.00 0.12 0.12 58 1022.3
20200117224131 63 257 1.0 5.0 0.00 0.12 0.12 59 1022.3
20200117223131 63 167 0.0 5.0 0.00 0.12 0.12 59 1022.4
20200117222130 63 279 1.0 8.0 0.00 0.12 0.12 60 1022.5
20200117221130 63 261 1.0 5.0 0.00 0.12 0.12 58 1022.4
20200117220130 63 187 0.0 7.0 0.00 0.12 0.12 57 1022.5
20200117215130 64 202 5.0 8.0 0.00 0.12 0.12 56 1022.5
20200117214129 63 238 0.0 8.0 0.00 0.12 0.12 57 1022.5
20200117213129 63 215 3.0 12.0 0.00 0.12 0.12 58 1022.6
20200117212129 63 188 1.0 7.0 0.00 0.12 0.12 58 1022.6
20200117211128 63 203 7.0 7.0 0.00 0.12 0.12 58 1022.6
20200117210128 63 203 0.0 8.0 0.00 0.12 0.12 59 1022.9
20200117205128 63 211 3.0 7.0 0.00 0.12 0.12 58 1022.9
20200117204127 63 242 1.0 5.0 0.00 0.12 0.12 60 1023.1
20200117203127 63 165 3.0 7.0 0.00 0.12 0.12 61 1023.1
20200117202128 64 182 0.0 4.0 0.00 0.12 0.12 62 1023.2
20200117201126 63 189 1.0 5.0 0.00 0.12 0.12 64 1023.4
20200117200126 63 184 4.0 7.0 0.00 0.12 0.12 63 1023.4
20200117195126 64 212 0.0 5.0 0.00 0.12 0.12 65 1023.5
20200117194126 63 254 5.0 7.0 0.00 0.12 0.12 62 1023.7
20200117193125 63 155 3.0 4.0 0.00 0.12 0.12 69 1023.9
20200117192125 62 232 1.0 4.0 0.00 0.12 0.12 68 1024.1
20200117191125 62 203 0.0 3.0 0.00 0.12 0.12 74 1024.2
20200117190124 61 214 0.0 1.0 0.00 0.12 0.12 76 1024.4
20200117185124 60 213 0.0 3.0 0.00 0.12 0.12 78 1024.3
20200117184124 60 185 0.0 1.0 0.00 0.12 0.12 81 1024.4
20200117183124 60 184 1.0 1.0 0.00 0.12 0.12 86 1024.4
20200117182123 58 209 0.0 1.0 0.00 0.12 0.12 91 1024.2
20200117181123 57 214 0.0 1.0 0.00 0.12 0.12 92 1024.1
20200117180123 56 72 0.0 0.0 0.00 0.12 0.12 95 1024.0
20200117175123 54 71 0.0 3.0 0.00 0.12 0.12 95 1023.9
20200117174122 54 210 0.0 0.0 0.00 0.12 0.12 97 1024.1
20200117173123 53 210 0.0 3.0 0.00 0.12 0.12 97 1023.9
20200117172122 53 207 0.0 4.0 0.00 0.12 0.12 97 1023.9
20200117171121 52 210 0.0 3.0 0.00 0.12 0.12 98 1023.8
20200117170121 52 182 0.0 1.0 0.00 0.12 0.12 98 1023.7